Tracking 19706 objects as of 17-Jun-2019
HD Live streaming from Space Station
objects crossing your sky now

CZ-5 R/B

Track CZ-5 R/B now!
10-day predictions


NORAD ID: 41839
Int'l Code: 2016-065B
Perigee: 218.2 km
Apogee: 23,705.8 km
Inclination: 19.5 °
Period: 411.7 minutes
Semi major axis: 18332 km
RCS: Unknown
Launch date: November 3, 2016
Source: People's Republic of China (PRC)
Launch site: Wenchang Satellite Launch Center (WSC)

Note: This is a ROCKET BODY
aabbcc
Your satellite tracking list
Your tracking list is empty




NASA's NSSDC Master Catalog

Two Line Element Set (TLE):
1 41839U 16065B   19167.50956285 +.00005213 +00000-0 +29610-3 0  9999
2 41839 019.4883 026.9154 6405827 171.2252 210.2765 03.49746525030886
Source of the keplerian elements: AFSPC